Tracking 28790 objects as of 19-Apr-2024
HD Live streaming from Space Station
objects crossing your sky now

THOR ABLESTAR DEB *

Track THOR ABLESTAR DEB * now!
10-day predictions


NORAD ID: 21970
Int'l Code: 1961-015ML
Perigee: 362.8 km
Apogee: 523.5 km
Inclination: 66.0 °
Period: 93.3 minutes
Semi major axis: 6814 km
RCS: 0.0158 m2 (small)
Launch date: June 29, 1961
Source: United States (US)
Launch site: AIR FORCE EASTERN TEST RANGE (AFETR)

Note: This is SATELLITE DEBRIS
Your satellite tracking list
Your tracking list is empty




NASA's NSSDC Master Catalog

Two Line Element Set (TLE):
1 21970U 61015ML  24110.52104447  .00112744  00000-0  19128-2 0  9999
2 21970  65.9681 290.9607 0117945 190.7812 169.0809 15.43420491728108
Source of the keplerian elements: AFSPC